IRIDIUM 181

Last updated on Sun Jun 21 2026 00:03:14 GMT+0000 (Coordinated Universal Time)

1 56726U 23068S 26171.43426507 .00000233 00000+0 63245-4 0 9994 2 56726 86.4498 55.4334 0002392 88.7656 271.3819 14.43308086162903
UTC large
Height (km)
Speed (km/s)
/
Latitude / Longitude
Inclination (degrees)
Orbital Period (minutes)
Azimuth
Elevation
Range (km)
Doppler Factor

Next 0 passes for location: London (51.5072 / 0.1276)

No passes found over London.
IRIDIUM 181